Kiripotib Landing Site

Jump to: basic info | weather | comments

Related pages: nearby airports | nearby navaids

Basic information (top)

Location: lon -23.328300, lat 17.946400, elev 4,475 ft / 1,364 m msl
Status: small_airport

Weather (top)

Current conditions for Hosea Kutako International Airport 57nm (106km) NNW (rec'd 2014/07/22 18:00Z):

FYWH 221800Z 33005KT CAVOK 09/M07 Q1026

Airport forecast for Hosea Kutako International Airport 57nm (106km) NNW (rec'd 2014/07/20 06:21Z):

TAF FYWH 200400Z 2006/2106 25005KT CAVOK 
      BECMG 2008/2010 02008KT

Latest comments (top)

More details: Once can also land in the nearby salt ... [read]

Kiripotib Landing Strip Details: GPS location: S 23° 19' 50'' E 17° ... [read]

More... (top)

See also NOTAMs and nearby airports and navaids, or visit the Kiripotib Landing Site page at the main OurAirports website..